Wahoo, NE

10:48 PM CDT on April 24, 2017 (GMT -0500)
Wahoo Municipal

Weather History for KAHQ - December, 2012

Change the Weather History Date:

Monday, December 3, 2012

  Actual Average Record
Temperature  
Mean Temperature 46 °F -  
Max Temperature 61 °F 39 °F 61 °F (1973)
Min Temperature 28 °F 19 °F 4 °F (1966)
Degree Days  
Heating Degree Days 18    
Moisture  
Dew Point 35 °F    
Average Humidity 69    
Maximum Humidity 97    
Minimum Humidity 32    
Precipitation  
Precipitation 0.00 in - - ()
Sea Level Pressure  
Sea Level Pressure 29.81 in    
Wind  
Wind Speed 9 mph (NW)    
Max Wind Speed 30 mph    
Max Gust Speed 40 mph    
Visibility 7 miles    
Events Fog    
Averages and records for this station are not official NWS values.
T = Trace of Precipitation, MM = Missing Value Source: NWS Daily Summary

Daily Weather History Graph

Daily Weather History Graph

Search for Another Location

Airport or City:

Trip Planner

Search our weather history database for the weather conditions in past years. The results will help you decide how hot, cold, wet, or windy it might be!

Date:

Astronomy

Dec. 03, 2012 Rise Set
Actual Time 7:35 AM CST 4:57 PM CST
Civil Twilight 7:04 AM CST 5:28 PM CST
Nautical Twilight 6:29 AM CST 6:02 PM CST
Astronomical Twilight 5:56 AM CST 6:36 PM CST
Moon 9:47 PM CST (12/3) 10:57 AM CST (12/3)
Length of Visible Light 10h 24m
Length of Day
9h 22m
Waning Gibbous, 78% of the Moon is Illuminated
Dec 3
Waning Gibbous
Dec 6
Last Quarter
Dec 13
New
Dec 19
First Quarter
Dec 28
Full

Hourly Weather History & Observations

Time (CST) Temp. Windchill Dew Point Humidity Pressure Visibility Wind Dir Wind Speed Gust Speed Precip Events Conditions
12:15 AM 39.7 °F 33.7 °F 37.9 °F 93% 29.73 in 7.0 mi SE 9.2 mph - N/A   Clear
12:35 AM 41.4 °F 36.2 °F 39.2 °F 92% 29.72 in 7.0 mi SSE 8.1 mph - N/A   Clear
12:55 AM 42.1 °F 37.7 °F 39.7 °F 91% 29.70 in 7.0 mi SE 6.9 mph - N/A   Clear
1:15 AM 40.1 °F 36.1 °F 38.7 °F 95% 29.69 in 4.0 mi SSE 5.8 mph - N/A   Clear
1:35 AM 39.0 °F 34.8 °F 37.8 °F 95% 29.69 in 1.5 mi East 5.8 mph - N/A   Mist
1:55 AM 40.3 °F 34.9 °F 39.0 °F 95% 29.67 in 1.8 mi SSE 8.1 mph - N/A   Mist
2:15 AM 42.1 °F 37.7 °F 40.8 °F 95% 29.66 in 3.0 mi SE 6.9 mph - N/A   Clear
2:35 AM 43.2 °F 37.9 °F 42.1 °F 96% 29.65 in 4.0 mi SE 9.2 mph - N/A   Clear
2:55 AM 43.7 °F 39.1 °F 42.8 °F 97% 29.65 in 4.0 mi SSE 8.1 mph - N/A   Clear
3:15 AM 43.2 °F 38.4 °F 41.9 °F 95% 29.64 in 4.0 mi SSE 8.1 mph - N/A   Clear
3:35 AM 42.6 °F 38.4 °F 41.4 °F 95% 29.63 in 3.0 mi SE 6.9 mph - N/A   Clear
3:55 AM 40.1 °F 36.9 °F 38.8 °F 95% 29.62 in 0.5 mi SSE 4.6 mph - N/A Fog Fog
4:15 AM 39.4 °F 35.2 °F 38.1 °F 95% 29.60 in 0.2 mi SSE 5.8 mph - N/A Fog Fog
4:35 AM 39.7 °F 36.5 °F 38.7 °F 96% 29.60 in 0.2 mi ESE 4.6 mph - N/A Fog Fog
4:55 AM 39.2 °F 34.2 °F 37.9 °F 95% 29.60 in 0.2 mi South 6.9 mph - N/A Fog Fog
5:15 AM 37.8 °F 33.3 °F 36.7 °F 96% 29.60 in 0.2 mi South 5.8 mph - N/A Fog Fog
5:35 AM 36.9 °F - 35.8 °F 96% 29.61 in 0.2 mi Calm Calm - N/A Fog Fog
5:55 AM 41.2 °F 39.2 °F 40.1 °F 96% 29.63 in 0.2 mi NE 3.5 mph - N/A Fog Fog
6:15 AM 38.8 °F - 37.8 °F 96% 29.63 in 0.2 mi Calm Calm - N/A Fog Fog
6:35 AM 36.1 °F 32.3 °F 35.1 °F 96% 29.61 in 0.2 mi SE 4.6 mph - N/A Fog Fog
7:15 AM 37.4 °F - 36.1 °F 95% 29.63 in 0.2 mi Calm Calm - N/A Fog Fog
7:35 AM 36.9 °F 31.4 °F 35.8 °F 96% 29.62 in 0.2 mi ESE 6.9 mph - N/A Fog Fog
7:55 AM 37.9 °F - 37.0 °F 97% 29.63 in 0.2 mi Calm Calm - N/A Fog Fog
8:15 AM 39.6 °F - 38.7 °F 97% 29.64 in 0.2 mi Calm Calm - N/A Fog Fog
8:35 AM 41.2 °F 38.2 °F 40.3 °F 97% 29.66 in 0.2 mi West 4.6 mph - N/A Fog Fog
8:55 AM 43.0 °F - 42.1 °F 97% 29.67 in 0.2 mi Calm Calm - N/A Fog Fog
9:15 AM 45.3 °F 44.0 °F 44.4 °F 97% 29.67 in 0.2 mi WSW 3.5 mph - N/A Fog Fog
9:35 AM 48.6 °F - 47.7 °F 97% 29.67 in 4.0 mi West 5.8 mph - N/A   Scattered Clouds
9:55 AM 49.3 °F - 48.4 °F 97% 29.69 in 7.0 mi West 6.9 mph - N/A   Clear
10:15 AM 50.0 °F - 47.7 °F 92% 29.70 in 10.0 mi WNW 10.4 mph - N/A   Clear
10:35 AM 50.2 °F - 43.5 °F 78% 29.71 in 10.0 mi NNW 16.1 mph 20.7 mph N/A   Clear
10:55 AM 50.5 °F - 43.3 °F 76% 29.71 in 10.0 mi NNW 13.8 mph 18.4 mph N/A   Clear
11:15 AM 55.2 °F - 43.7 °F 65% 29.73 in 10.0 mi NNW 20.7 mph 26.5 mph N/A   Clear
11:35 AM 58.1 °F - 42.8 °F 57% 29.76 in 10.0 mi NNW 23.0 mph 31.1 mph N/A   Clear
11:55 AM 59.9 °F - 40.3 °F 48% 29.76 in 10.0 mi NNW 29.9 mph 40.3 mph N/A   Clear
12:15 PM 60.6 °F - 39.4 °F 45% 29.76 in 10.0 mi NNW 28.8 mph 39.1 mph N/A   Clear
12:35 PM 61.2 °F - 38.1 °F 42% 29.77 in 10.0 mi NNW 27.6 mph 34.5 mph N/A   Clear
12:55 PM 61.3 °F - 38.1 °F 42% 29.78 in 10.0 mi NNW 23.0 mph 31.1 mph N/A   Clear
1:15 PM 61.0 °F - 36.5 °F 40% 29.79 in 10.0 mi NNW 24.2 mph 34.5 mph N/A   Clear
1:35 PM 60.8 °F - 34.7 °F 38% 29.80 in 10.0 mi NNW 21.9 mph 32.2 mph N/A   Clear
1:55 PM 60.4 °F - 33.8 °F 37% 29.82 in 10.0 mi NNW 26.5 mph 36.8 mph N/A   Clear
2:15 PM 61.3 °F - 33.8 °F 36% 29.84 in 10.0 mi NNW 18.4 mph 34.5 mph N/A   Clear
2:35 PM 60.8 °F - 32.5 °F 35% 29.84 in 10.0 mi NNW 21.9 mph 29.9 mph N/A   Clear
2:55 PM 60.6 °F - 32.0 °F 34% 29.86 in 10.0 mi NNW 21.9 mph 27.6 mph N/A   Clear
3:15 PM 60.3 °F - 32.0 °F 34% 29.87 in 10.0 mi NNW 19.6 mph 26.5 mph N/A   Clear
3:35 PM 59.9 °F - 30.0 °F 32% 29.89 in 10.0 mi North 20.7 mph 26.5 mph N/A   Clear
3:55 PM 59.2 °F - 30.7 °F 34% 29.90 in 10.0 mi NNW 20.7 mph 26.5 mph N/A   Clear
4:15 PM 57.2 °F - 30.7 °F 37% 29.92 in 10.0 mi NNW 18.4 mph 21.9 mph N/A   Clear
4:35 PM 54.9 °F - 30.0 °F 39% 29.94 in 10.0 mi NNW 12.7 mph 18.4 mph N/A   Clear
4:55 PM 51.4 °F - 30.2 °F 44% 29.95 in 10.0 mi NNW 6.9 mph - N/A   Clear
5:15 PM 48.7 °F - 30.0 °F 48% 29.95 in 10.0 mi NNW 6.9 mph - N/A   Clear
5:35 PM 47.3 °F - 30.2 °F 52% 29.96 in 10.0 mi NW 8.1 mph - N/A   Clear
5:55 PM 46.0 °F 41.9 °F 30.2 °F 54% 29.97 in 10.0 mi NW 8.1 mph - N/A   Clear
6:15 PM 46.4 °F 44.3 °F 30.2 °F 53% 29.99 in 10.0 mi NW 4.6 mph - N/A   Clear
6:35 PM 43.7 °F 38.1 °F 29.5 °F 57% 29.99 in 10.0 mi NW 10.4 mph - N/A   Clear
6:55 PM 43.7 °F 39.7 °F 28.8 °F 56% 30.00 in 10.0 mi WNW 6.9 mph - N/A   Clear
7:15 PM 42.3 °F 37.3 °F 28.0 °F 57% 30.00 in 10.0 mi NW 8.1 mph - N/A   Clear
7:35 PM 43.3 °F 37.7 °F 27.9 °F 54% 30.02 in 10.0 mi NW 10.4 mph - N/A   Clear
7:55 PM 42.1 °F 36.1 °F 26.1 °F 53% 30.03 in 10.0 mi NW 10.4 mph - N/A   Clear
8:15 PM 40.8 °F 35.0 °F 24.4 °F 52% 30.02 in 10.0 mi NW 9.2 mph - N/A   Clear
8:35 PM 40.1 °F 33.6 °F 25.3 °F 56% 30.04 in 10.0 mi NW 10.4 mph - N/A   Clear
8:55 PM 42.1 °F 36.1 °F 24.8 °F 50% 30.05 in 10.0 mi NW 10.4 mph - N/A   Clear
9:15 PM 41.7 °F 36.1 °F 23.7 °F 49% 30.06 in 10.0 mi NW 9.2 mph - N/A   Clear
9:35 PM 41.4 °F 37.6 °F 22.8 °F 48% 30.07 in 10.0 mi WNW 5.8 mph - N/A   Clear
9:55 PM 39.7 °F 33.7 °F 23.9 °F 53% 30.07 in 10.0 mi WNW 9.2 mph - N/A   Clear
10:15 PM 42.1 °F 36.6 °F 23.9 °F 49% 30.07 in 10.0 mi WNW 9.2 mph - N/A   Clear
10:35 PM 39.9 °F 34.5 °F 23.0 °F 51% 30.07 in 10.0 mi WNW 8.1 mph - N/A   Clear
10:55 PM 32.2 °F - 20.8 °F 63% 30.08 in 10.0 mi Calm Calm - N/A   Clear
11:15 PM 32.9 °F - 21.6 °F 63% 30.08 in 10.0 mi Calm Calm - N/A   Clear
11:35 PM 28.9 °F 23.9 °F 21.2 °F 73% 30.09 in 10.0 mi ESE 4.6 mph - N/A   Clear